Home > Weather > Morden > Past weeks

Flag for Canada Weather for the Past 2 Weeks in Morden, Manitoba, Canada

Now
41 °F

Quite cool.


Feels Like: 34 °F
Forecast: 11 / 34 °F
Wind: 12 mph from West

Location: Morden CDA CS

Current Time: Feb 6, 2016 at 8:27:51 PM

Latest Report: Feb 6, 2016 at 7:00 PM


Visibility: N/A

Pressure: 29.48 "Hg

Humidity: 74%

Dew point: 33 °F

Location of MordenLocation

Historic Weather in Morden — Graph

°F

Morden Temperature Yesterday

Maximum temperature yesterday: 26 °F (at 4:00 PM)
Minimum temperature yesterday: 7 °F (at 7:00 AM)
Average temperature yesterday: 17 °F

High & Low Weather Summary for the Past Weeks

 TemperatureHumidityPressure
High41 °F (Feb 6, 7:00 PM)100% (Jan 24, 9:00 AM)30.29 "Hg (Jan 24, 9:00 AM)
Low6 °F (Feb 3, 3:00 AM)67% (Jan 26, 3:00 PM)29.28 "Hg (Jan 30, 1:00 AM)
Average23 °F84%29.88 "Hg
* Reported Jan 22 7:00 PM — Feb 6 7:00 PM, Morden, Weather by CustomWeather, © 2016

Note: Actual official high and low records may vary slightly from our data, if they occured in-between our weather recording intervals... More about our weather records

Advertising

Morden Weather History for the Previous 24 Hours

 ConditionsComfort  
Time TempWeatherWind HumidityBarometerVisibility
7:00 PM
Sat, Feb 6
41 °FQuite cool.12 mph74%29.48 "HgN/A
6:00 PM38 °FChilly.9 mph80%29.49 "HgN/A
5:00 PM39 °FChilly.6 mph79%29.51 "HgN/A
4:00 PM39 °FChilly.5 mph74%29.53 "HgN/A
2:00 PM36 °FChilly.5 mph81%29.60 "HgN/A
1:00 PM33 °FChilly.7 mph82%29.65 "HgN/A
12:00 PM30 °FChilly.8 mph83%29.68 "HgN/A
11:00 AM27 °FChilly.9 mph87%29.72 "HgN/A
10:00 AM26 °FChilly.7 mph87%29.75 "HgN/A
9:00 AM25 °FChilly.3 mph89%29.78 "HgN/A
8:00 AM24 °FCold.5 mph89%29.81 "HgN/A
7:00 AM23 °FCold.5 mph88%29.85 "HgN/A
6:00 AM22 °FCold.6 mph89%29.87 "HgN/A
5:00 AM21 °FCold.5 mph91%29.90 "HgN/A
4:00 AM22 °FCold.5 mph89%29.93 "HgN/A
3:00 AM22 °FCold.3 mph89%29.96 "HgN/A
2:00 AM22 °FCold.2 mph87%29.98 "HgN/A
1:00 AM22 °FCold.3 mph83%30.01 "HgN/A
12:00 AM20 °FCold.2 mph83%30.03 "HgN/A
11:00 PM
Fri, Feb 5
21 °FCold.2 mph87%30.05 "HgN/A
10:00 PM20 °FCold.3 mph88%30.09 "HgN/A
9:00 PM17 °FCold.2 mph91%30.10 "HgN/A
8:00 PM16 °FCold.2 mph96%30.13 "HgN/A
Weather by CustomWeather, © 2016

See weather overviewHow to use our weather pages